Weather observations for the past three days for
Denton Enterprise Airport
Metric (Imperial)
Date Time (cdt) Wind (kph) Vis. (km) Weather Sky Cond. Temperature (ºC) Relative Humidity Wind Chill (°C) Heat Index (°C) Pressure Precipitation (cm)
Air Dwpt 6 hour altimeter (cm) sea level (mb) 1 hr 3 hr 6 hr
Max. Min.
15 18:53 S 24 16.09 Fair CLR 37.2 20.6 38.9 35 38% 41 75.87 1010.3
15 17:53 SW 20 G 35 16.09 Fair CLR 37.8 18.9 33% 40 75.9 1010.6
15 16:53 S 24 G 37 16.09 Fair CLR 38.3 20 34% 42 75.95 1011.2
15 15:53 SW 19 G 37 16.09 Fair CLR 37.8 19.4 34% 41 75.97 1011.8
15 14:53 S 19 G 37 16.09 Fair CLR 37.2 20.6 38% 41 76.07 1013.1
15 13:53 SW 24 G 39 16.09 Fair CLR 36.1 21.1 42% 40 76.1 1013.4
15 12:53 S 24 G 35 16.09 Fair CLR 35 22.2 35 26.1 47% 40 76.17 1014.2
15 11:53 S 22 16.09 Fair CLR 33.9 22.2 50% 38 76.25 1015.4
15 10:53 S 28 16.09 Fair CLR 32.2 22.2 56% 36 76.25 1015.6
15 09:53 SW 26 16.09 Fair CLR 30.6 22.2 61% 34 76.3 1016.3
15 08:53 S 26 16.09 Fair CLR 28.9 22.2 67% 32 76.33 1016.4
15 07:53 S 17 16.09 Fair CLR 27.2 21.7 72% 29 76.28 1016.0
15 06:53 S 17 16.09 Fair CLR 26.1 21.1 29.4 25.6 74% 28 76.25 1015.4
15 05:53 S 13 16.09 Fair CLR 25.6 20.6 74% 27 76.23 1015.2
15 04:53 S 17 16.09 Fair CLR 26.7 20.6 69% 28 76.2 1014.8
15 03:53 S 13 16.09 Fair CLR 27.2 21.1 69% 29 76.2 1014.8
15 02:53 S 15 16.09 Fair CLR 27.8 20.6 65% 30 76.2 1014.7
15 01:53 S 15 16.09 Fair CLR 28.3 20.6 63% 30 76.23 1015.2
15 00:53 S 20 16.09 Fair CLR 29.4 20.6 36.1 29.4 59% 32 76.23 1015.3
14 23:53 S 26 16.09 Fair CLR 30.6 21.1 57% 33 76.25 1015.3
14 22:53 S 20 16.09 Fair CLR 31.7 20 50% 34 76.25 1015.3
14 21:53 S 20 16.09 Fair CLR 32.2 19.4 47% 34 76.17 1014.6
14 20:53 S 20 16.09 Fair CLR 33.3 20 46% 36 76.17 1014.4
14 19:53 S 22 16.09 Fair CLR 34.4 20.6 44% 37 76.17 1014.3
14 18:53 SE 19 16.09 Fair CLR 36.1 21.1 37.8 33.3 42% 40 76.15 1014.3
14 17:53 SW 20 16.09 A Few Clouds FEW080 37.2 18.3 33% 39 76.17 1014.3
14 16:53 S 22 16.09 A Few Clouds FEW070 37.2 20 37% 40 76.2 1014.7
14 15:53 SW 20 G 35 16.09 A Few Clouds FEW065 36.7 20.6 39% 40 76.23 1015.3
14 14:53 SW 24 G 39 16.09 A Few Clouds FEW060 36.1 21.1 42% 40 76.33 1016.4
14 13:53 SW 22 16.09 Partly Cloudy SCT055 35 21.7 46% 39 76.38 1017.2
14 12:53 SW 15 G 37 16.09 Fair CLR 33.9 22.2 34.4 25 50% 38 76.43 1017.9
14 11:53 S 17 16.09 Fair CLR 33.3 23.3 56% 39 76.5 1018.9
14 10:53 SW 13 16.09 Fair CLR 30.6 22.8 63% 35 76.53 1019.4
14 09:53 SW 19 16.09 Fair CLR 30 23.3 67% 34 76.56 1019.7
14 08:53 SW 17 16.09 Fair CLR 27.8 22.8 74% 31 76.58 1019.8
14 07:53 S 15 16.09 Fair CLR 26.7 22.8 79% 29 76.56 1019.5
14 06:53 S 13 16.09 Fair CLR 25 22.8 27.8 24.4 88% 26 76.5 1019.0
14 05:53 S 11 16.09 Fair CLR 25 22.8 88% 26 76.48 1018.6
14 04:53 S 13 16.09 Fair CLR 25 22.8 88% 26 76.48 1018.5
14 03:53 S 15 16.09 Fair CLR 25.6 22.2 82% 27 76.45 1018.3
14 02:53 S 17 16.09 Fair CLR 26.1 22.2 79% 28 76.48 1018.4
14 01:53 S 19 16.09 Fair CLR 26.7 22.2 76% 29 76.5 1018.8
14 00:53 S 15 16.09 Fair CLR 27.8 22.2 34.4 27.8 72% 30 76.5 1018.8
13 23:53 S 19 16.09 Fair CLR 28.3 22.2 70% 31 76.48 1018.7
13 22:53 S 19 16.09 Fair CLR 28.9 22.2 67% 32 76.48 1018.5
13 21:53 S 20 16.09 Fair CLR 29.4 21.7 63% 32 76.45 1018.3
13 20:53 S 33 G 48 16.09 Fair and Breezy CLR 30.6 21.7 59% 34 76.45 1018.1
13 19:53 S 19 16.09 Fair CLR 33.3 20.6 47% 36 76.4 1017.5
13 18:53 S 22 16.09 Mostly Cloudy BKN070 34.4 20.6 36.1 32.2 44% 37 76.4 1017.4
13 17:53 S 20 G 31 16.09 Fair CLR 35 20 41% 38 76.38 1017.3
13 16:53 S 15 G 31 16.09 A Few Clouds FEW060 35 20 41% 38 76.4 1017.4
13 15:53 SE 15 16.09 A Few Clouds FEW060 35 21.1 44% 39 76.43 1017.9
13 14:53 S 19 G 35 16.09 Partly Cloudy SCT055 34.4 20.6 44% 37 76.48 1018.7
13 13:53 S 20 G 31 16.09 Mostly Cloudy BKN050 33.3 21.1 49% 37 76.53 1019.4
13 12:53 S 22 G 31 16.09 Partly Cloudy SCT045 32.2 21.1 33.3 23.9 52% 35 76.58 1020.0
13 11:53 SW 19 16.09 A Few Clouds FEW042 31.7 21.7 55% 35 76.61 1020.3
13 10:53 S 15 G 33 16.09 Fair CLR 30.6 21.7 59% 34 76.61 1020.3
13 09:53 S 19 16.09 Fair CLR 28.9 21.7 65% 32 76.63 1020.5
13 08:53 S 19 16.09 Fair CLR 27.2 21.7 72% 29 76.63 1020.6
13 07:53 S 13 16.09 Fair CLR 25 21.7 82% 26 76.61 1020.2
13 06:53 S 9 16.09 Fair CLR 23.9 21.7 27.2 22.8 88% 24 76.56 1019.7
13 05:53 S 9 16.09 Fair CLR 23.3 21.7 91% 76.53 1019.3
13 04:53 S 11 16.09 Fair CLR 24.4 21.7 85% 25 76.48 1018.6
13 03:53 S 11 16.09 Fair CLR 25 21.7 82% 26 76.48 1018.5
13 02:53 S 15 16.09 Fair CLR 25.6 21.7 79% 27 76.48 1018.4
13 01:53 S 15 16.09 Fair CLR 26.1 21.1 74% 28 76.45 1018.3
13 00:53 S 19 16.09 Fair CLR 26.7 20.6 35 26.7 69% 28 76.48 1018.4
12 23:53 S 17 16.09 Fair CLR 27.8 20 63% 29 76.45 1018.3
12 22:53 S 17 16.09 Fair CLR 28.3 19.4 59% 30 76.43 1017.8
12 21:53 S 17 16.09 Fair CLR 29.4 20.6 59% 32 76.35 1016.9
12 20:53 S 20 16.09 A Few Clouds FEW060 31.1 21.7 57% 34 76.33 1016.4
12 19:53 SE 17 16.09 Fair CLR 33.9 20 44% 36 76.28 1016.0
Date Time (cdt) Wind (kph) Vis. (km) Weather Sky Cond. Air Dwpt Max. Min. Relative Humidity Wind Chill (°C) Heat Index (°C) altimeter (cm) sea level (mb) 1 hr 3 hr 6 hr
6 hour
Temperature (ºC) Pressure Precipitation (cm)